www.pogodaiklimat.ru

Погода и климат >> Архив погоды >> Австралия >> Moomba Airport


ПОГОДА в Moomba Airport

  • Прогноз погоды в Moomba Airport
  • Монитор погоды в Moomba Airport
  • Климат города

АРХИВ ПОГОДЫ в Moomba Airport

Время (UTC), дата Ветер
(напр.,м/с)
 
Видим.   Явления Облачность Т
(С)
Тd
(С)
f
(%)
Тe
(С)
Тes
(С)
Комфортность P
(гПа)
Po
(гПа)
Тmin
(С)
Tmax
(С)
R
(мм)
R24
(мм)
S
(см)
22 9.08 С 5 н/о н/о +9.1 -8.0 29 +6 +6 1015.1 1010.5
23 9.08 С 6 н/о н/о +16.2 -8.8 17 +15 +15 1015.6 1011.0
00 10.08 С 7 н/о н/о +20.8 -8.6 13 +20 +20 1015.6 1011.0
01 10.08 С 8 н/о н/о +25.4 -6.0 12 +23 +23 комфорт 1015.1 1010.5
02 10.08 С 10 н/о н/о +27.4 -5.6 11 +24 +24 комфорт 1014.3 1009.7
03 10.08 С 10 н/о н/о +28.7 -5.9 10 +25 +25 комфорт 1013.2 1008.6
04 10.08 С 9 н/о н/о +29.7 -6.5 9 +26 +26 жарко 1012.4 1007.8
05 10.08 СЗ 8 н/о н/о +30.0 -6.3 9 +26 +26 жарко 1012.3 1007.7
06 10.08 СЗ 7 н/о н/о +30.1 -4.8 10 +27 +27 жарко 1012.2 1007.6
07 10.08 СЗ 8 н/о н/о +29.7 -5.1 10 +26 +26 жарко 1012.4 1007.8
08 10.08 СЗ 5 н/о н/о +27.3 -4.6 12 +24 +24 комфорт 1012.5 1007.9
09 10.08 С 4 н/о н/о +21.6 -4.5 17 +21 +21 комфорт 1013.1 1008.5
10 10.08 СЗ 5 н/о н/о +22.2 -4.0 17 +21 +21 комфорт 1014.0 1009.4
11 10.08 З 4 н/о н/о +18.8 -3.3 22 +19 +19 1015.1 1010.5
12 10.08 З 3 н/о н/о +17.0 -3.1 25 +17 +17 1015.5 1010.9
13 10.08 З 4 н/о н/о +16.6 -3.0 26 +16 +16 1016.2 1011.6
14 10.08 З 5 н/о н/о +15.6 -1.4 31 +15 +15 1016.6 1012.0
15 10.08 ЮЗ 5 н/о н/о +15.7 -0.1 34 +15 +15 1017.1 1012.5
16 10.08 ЮЗ 4 н/о н/о +15.1 -0.6 34 +14 +14 1017.4 1012.8
17 10.08 ЮЗ 4 н/о н/о +14.3 -0.9 35 +13 +13 1017.2 1012.6
18 10.08 ЮЗ 4 н/о н/о +13.7 -1.5 35 +13 +13 1017.4 1012.8
19 10.08 Ю 4 н/о н/о +14.1 -1.9 33 +13 +13 1017.5 1012.9
20 10.08 Ю 4 н/о н/о +13.8 -2.6 32 +13 +13 1018.1 1013.5
21 10.08 Ю 3 н/о н/о +12.7 -2.7 34 +12 +12 1019.3 1014.7
22 10.08 Ю 3 н/о н/о +12.8 -2.3 35 +12 +12 1020.8 1016.2
23 10.08 Ю 5 н/о н/о +14.7 -1.8 32 +14 +14 1021.7 1017.1
00 11.08 ЮВ 7 н/о н/о +17.2 -1.9 27 +16 +16 1022.4 1017.8
01 11.08 Ю 7 н/о н/о +17.8 -1.9 26 +17 +17 1022.8 1018.2
02 11.08 ЮВ 5 н/о н/о +19.5 -1.6 24 +19 +19 1022.6 1018.0
03 11.08 Ю 6 н/о н/о +20.3 -2.7 21 +20 +20 1021.7 1017.1
04 11.08 ЮВ 5 н/о н/о +20.9 -2.9 20 +21 +21 комфорт 1020.5 1015.9
05 11.08 Ю 5 н/о н/о +20.8 -0.5 24 +21 +21 комфорт 1019.6 1015.0
06 11.08 Ю 3 н/о н/о +20.3 -1.5 23 +21 +21 комфорт 1020.0 1015.4
07 11.08 штиль 0 н/о н/о +19.7 -2.0 23 +19 +19 1020.1 1015.5
08 11.08 ЮВ 3 н/о н/о +19.3 -1.2 25 +20 +20 1020.5 1015.9
09 11.08 Ю 4 н/о н/о +18.2 +0.8 31 +18 +18 1020.7 1016.1
10 11.08 Ю 4 н/о н/о +16.6 +1.9 37 +16 +16 1021.0 1016.4
11 11.08 Ю 4 н/о н/о +15.1 +2.6 43 +14 +14 1021.9 1017.3
12 11.08 Ю 4 н/о н/о +14.5 +2.4 44 +13 +13 1022.3 1017.7
13 11.08 Ю 3 н/о н/о +13.4 +2.0 46 +13 +13 1022.6 1018.0
14 11.08 Ю 4 н/о н/о +13.5 +1.5 44 +12 +12 1022.1 1017.5
15 11.08 ЮВ 3 н/о н/о +11.8 +0.9 47 +10 +10 1021.5 1016.9
16 11.08 В 2 н/о н/о +9.0 +0.2 54 +8 +8 1021.3 1016.7
17 11.08 ЮВ 1 н/о н/о +8.7 +0.2 55 +8 +8 1021.6 1017.0
18 11.08 Ю 3 н/о н/о +8.9 -0.1 53 +7 +7 1021.5 1016.9
19 11.08 ЮВ 3 н/о н/о +9.1 0.0 53 +7 +7 1021.4 1016.8
20 11.08 Ю 2 н/о н/о +6.8 -1.1 57 +6 +6 1022.0 1017.4
21 11.08 ЮВ 4 н/о н/о +8.1 -0.6 54 +5 +5 1022.6 1018.0
22 11.08 В 2 н/о н/о +8.2 -1.3 51 +7 +7 1023.4 1018.8
23 11.08 В 3 н/о н/о +11.3 -0.5 44 +10 +10 1024.2 1019.6
00 12.08 В 4 н/о н/о +16.3 +0.8 35 +16 +16 1024.4 1019.8
01 12.08 В 6 н/о н/о +18.8 +0.4 29 +18 +18 1023.9 1019.3
02 12.08 В 5 н/о н/о +20.5 -0.2 25 +20 +20 1023.2 1018.6
03 12.08 В 4 н/о н/о +21.0 -0.3 24 +21 +21 комфорт 1022.3 1017.7
04 12.08 СВ 4 н/о н/о +22.5 -0.9 21 +22 +22 комфорт 1021.2 1016.6
05 12.08 В 3 н/о н/о +22.7 -2.1 19 +21 +21 комфорт 1020.3 1015.7
06 12.08 СВ 3 н/о н/о +23.2 -2.4 18 +22 +22 комфорт 1019.7 1015.1
07 12.08 В 2 н/о н/о +23.3 -2.3 18 +22 +22 комфорт 1019.6 1015.0
08 12.08 В 2 н/о н/о +21.8 -2.8 19 +21 +21 комфорт 1020.1 1015.5
09 12.08 ЮВ 2 н/о н/о +19.3 -2.9 22 +20 +20 1020.4 1015.8
10 12.08 В 2 н/о н/о +16.8 -2.8 26 +17 +17 1020.7 1016.1
11 12.08 штиль 0 н/о н/о +15.1 -2.8 29 +15 +15 1021.3 1016.7
12 12.08 В 3 н/о н/о +13.8 -3.9 29 +13 +13 1021.2 1016.6
13 12.08 В 4 н/о н/о +12.4 -4.7 30 +11 +11 1021.0 1016.4
14 12.08 В 3 н/о н/о +13.0 -4.1 30 +12 +12 1020.9 1016.3
15 12.08 В 2 н/о н/о +11.2 -5.3 31 +11 +11 1020.8 1016.2
16 12.08 В 3 н/о н/о +9.8 -5.3 34 +8 +8 1020.3 1015.7
17 12.08 СВ 5 н/о н/о +10.9 -4.7 33 +9 +9 1019.6 1015.0
18 12.08 СВ 5 н/о н/о +11.5 -4.2 33 +9 +9 1019.4 1014.8
19 12.08 СВ 5 н/о н/о +11.7 -3.6 34 +10 +10 1019.5 1014.9
20 12.08 Ю 4 н/о н/о +10.6 -3.8 36 +9 +9 1020.6 1016.0
21 12.08 ЮВ 4 н/о н/о +11.5 -3.0 36 +10 +10 1021.5 1016.9
22 12.08 В 2 н/о н/о +10.6 -3.5 37 +10 +10 1022.0 1017.4
23 12.08 В 4 н/о н/о +15.3 -2.2 30 +15 +15 1022.3 1017.7
00 13.08 СВ 4 н/о н/о +21.8 +0.9 25 +21 +21 комфорт 1022.2 1017.6
01 13.08 СВ 4 н/о н/о +24.7 +1.6 22 +24 +24 комфорт 1022.1 1017.5
02 13.08 СВ 4 н/о н/о +26.3 +0.9 19 +25 +25 комфорт 1021.5 1016.9
03 13.08 С 3 н/о н/о +27.7 +2.0 19 +26 +26 жарко 1020.3 1015.7
04 13.08 СЗ 3 н/о н/о +28.5 +1.9 18 +26 +26 жарко 1019.3 1014.7
05 13.08 СВ 3 н/о н/о +29.2 +1.7 17 +27 +27 жарко 1018.5 1013.9
06 13.08 С 2 н/о н/о +29.5 +1.9 17 +27 +27 жарко 1018.0 1013.4
07 13.08 СЗ 3 н/о н/о +29.2 +1.7 17 +27 +27 жарко 1018.2 1013.6
08 13.08 СЗ 3 н/о н/о +27.2 +0.8 18 +25 +25 комфорт 1018.2 1013.6
09 13.08 СВ 2 н/о н/о +22.8 0.0 22 +22 +22 комфорт 1018.5 1013.9
10 13.08 СВ 2 н/о н/о +21.8 +0.9 25 +21 +21 комфорт 1019.4 1014.8
11 13.08 В 3 н/о н/о +18.8 -0.6 27 +19 +19 1019.0 1014.4
12 13.08 В 2 н/о н/о +17.5 -0.7 29 +18 +18 1019.7 1015.1
13 13.08 В 3 н/о н/о +17.3 0.0 31 +17 +17 1019.6 1015.0
14 13.08 СВ 3 н/о н/о +15.9 -0.3 33 +16 +16 1019.5 1014.9
15 13.08 СВ 4 н/о н/о +16.4 +0.1 33 +16 +16 1018.9 1014.3
16 13.08 С 5 н/о н/о +17.1 +0.3 32 +17 +17 1018.8 1014.2
17 13.08 СВ 3 н/о н/о +15.9 -0.3 33 +16 +16 1018.3 1013.7
18 13.08 С 5 н/о н/о +16.6 +0.3 33 +16 +16 1018.0 1013.4
19 13.08 С 5 н/о н/о +15.3 -0.1 35 +14 +14 1017.8 1013.2
20 13.08 С 5 н/о н/о +16.2 +0.3 34 +15 +15 1018.1 1013.5
21 13.08 С 5 н/о н/о +15.6 -0.2 34 +15 +15 1018.6 1014.0
22 13.08 С 6 н/о н/о +17.3 -0.4 30 +17 +17 1019.2 1014.6
23 13.08 С 7 н/о н/о +21.8 -0.2 23 +21 +21 комфорт 1019.1 1014.5
00 14.08 С 6 н/о н/о +25.2 0.0 19 +24 +24 комфорт 1019.3 1014.7
01 14.08 С 7 н/о н/о +28.6 -0.5 15 +26 +26 жарко 1019.2 1014.6
02 14.08 С 7 н/о н/о +30.6 +0.1 14 +28 +28 жарко 1018.2 1013.6
03 14.08 СЗ 6 н/о н/о +31.8 0.0 13 +29 +29 жарко 1017.1 1012.5
04 14.08 СЗ 6 н/о н/о +32.2 -0.8 12 +29 +29 жарко 1015.7 1011.1
05 14.08 СЗ 6 н/о н/о +32.4 -1.8 11 +29 +29 жарко 1015.1 1010.5
06 14.08 СЗ 5 н/о н/о +32.5 -1.7 11 +29 +29 жарко 1014.5 1009.9
07 14.08 С 5 н/о н/о +31.8 -1.1 12 +28 +28 жарко 1014.3 1009.7
08 14.08 СЗ 5 н/о н/о +29.8 -1.5 13 +27 +27 жарко 1014.7 1010.1
09 14.08 С 4 н/о н/о +24.1 -1.7 18 +23 +23 комфорт 1014.8 1010.2
10 14.08 С 4 н/о н/о +22.6 -1.5 20 +21 +21 комфорт 1015.2 1010.6
11 14.08 С 5 н/о н/о +22.5 -1.6 20 +21 +21 комфорт 1015.4 1010.8
12 14.08 С 5 н/о н/о +21.1 -1.4 22 +21 +21 комфорт 1015.3 1010.7
13 14.08 С 5 н/о н/о +20.8 -1.7 22 +21 +21 комфорт 1014.9 1010.3
14 14.08 С 5 н/о н/о +20.0 -1.7 23 +20 +20 1014.5 1009.9
15 14.08 С 5 н/о н/о +18.8 -1.6 25 +19 +19 1014.2 1009.6
16 14.08 С 5 н/о н/о +18.1 -2.2 25 +18 +18 1013.8 1009.2
17 14.08 С 5 н/о н/о +17.7 -2.0 26 +17 +17 1013.3 1008.7
18 14.08 С 6 н/о н/о +17.0 -2.1 27 +16 +16 1012.6 1008.0
19 14.08 С 6 н/о н/о +15.8 -2.6 28 +15 +15 1012.7 1008.1
20 14.08 С 6 н/о н/о +16.1 -2.4 28 +15 +15 1012.8 1008.2
21 14.08 С 5 н/о н/о +16.0 -2.0 29 +15 +15 1013.2 1008.6
22 14.08 С 6 н/о н/о +17.6 -1.6 27 +17 +17 1013.4 1008.8
23 14.08 С 7 н/о н/о +23.4 -1.5 19 +22 +22 комфорт 1013.5 1008.9
00 15.08 С 8 н/о н/о +27.0 -1.8 15 +25 +25 комфорт 1013.2 1008.6
01 15.08 С 9 н/о н/о +30.5 -1.0 13 +27 +27 жарко 1012.6 1008.0
02 15.08 СЗ 12 н/о н/о +32.6 -2.9 10 +29 +29 жарко 1011.3 1006.7
03 15.08 СЗ 11 н/о н/о +33.3 -2.4 10 +30 +30 жарко 1010.0 1005.4
04 15.08 СЗ 10 н/о н/о +34.1 -1.8 10 +30 +30 жарко 1008.7 1004.1
05 15.08 С 11 н/о н/о +34.0 -3.3 9 +30 +30 жарко 1007.6 1003.0
06 15.08 СЗ 9 н/о н/о +33.6 -3.6 9 +30 +30 жарко 1007.1 1002.5
07 15.08 СЗ 9 н/о н/о +33.3 -3.8 9 +29 +29 жарко 1006.8 1002.2
08 15.08 СЗ 7 н/о н/о +31.4 -3.8 10 +28 +28 жарко 1006.8 1002.2
09 15.08 С 4 н/о н/о +26.0 -3.5 14 +24 +24 комфорт 1007.2 1002.6
10 15.08 С 5 н/о н/о +23.4 -3.0 17 +22 +22 комфорт 1007.5 1002.9
11 15.08 С 5 н/о н/о +21.9 -2.7 19 +21 +21 комфорт 1007.9 1003.3
12 15.08 С 6 н/о н/о +22.4 -2.3 19 +21 +21 комфорт 1007.8 1003.2
13 15.08 С 6 н/о н/о +23.1 -2.5 18 +22 +22 комфорт 1007.5 1002.9
14 15.08 С 6 н/о н/о +21.1 -2.7 20 +20 +20 1007.4 1002.8
15 15.08 СЗ 5 н/о н/о +22.2 -2.5 19 +21 +21 комфорт 1008.2 1003.6
16 15.08 СЗ 5 н/о н/о +21.0 -2.8 20 +21 +21 комфорт 1008.0 1003.4
17 15.08 ЮЗ 8 н/о н/о +20.1 +6.5 41 +20 +20 1009.3 1004.7
18 15.08 Ю 9 н/о н/о +18.7 +9.8 56 +18 +18 1009.8 1005.2
19 15.08 Ю 5 н/о н/о +17.4 +9.8 61 +17 +17 1010.3 1005.7
20 15.08 Ю 2 н/о н/о +16.1 +9.8 66 +16 +16 1011.1 1006.5
21 15.08 ЮЗ 3 н/о н/о +14.1 +8.3 68 +13 +13 1012.4 1007.8
22 15.08 ЮЗ 5 н/о н/о +16.0 +10.5 70 +15 +15 1013.3 1008.7
23 15.08 ЮЗ 7 н/о н/о +17.8 +7.8 52 +17 +17 1013.9 1009.3
00 16.08 Ю 8 н/о н/о +19.3 +4.3 37 +19 +19 1014.4 1009.8
01 16.08 Ю 7 н/о н/о +20.2 +3.0 32 +20 +20 1014.3 1009.7
02 16.08 Ю 5 н/о н/о +21.1 +1.9 28 +21 +21 комфорт 1013.8 1009.2
03 16.08 ЮЗ 5 н/о н/о +21.8 +0.4 24 +21 +21 комфорт 1013.0 1008.4
04 16.08 ЮЗ 5 н/о н/о +22.3 +0.2 23 +22 +22 комфорт 1012.2 1007.6
05 16.08 З 6 н/о н/о +22.7 +0.5 23 +22 +22 комфорт 1011.9 1007.3
06 16.08 ЮЗ 5 н/о н/о +22.8 +1.2 24 +22 +22 комфорт 1011.8 1007.2
07 16.08 З 5 н/о н/о +22.9 +0.7 23 +22 +22 комфорт 1011.9 1007.3
08 16.08 З 5 н/о н/о +21.9 +0.4 24 +21 +21 комфорт 1012.2 1007.6
09 16.08 З 3 н/о н/о +19.3 -0.1 27 +20 +20 1012.7 1008.1
10 16.08 З 3 н/о н/о +18.5 +0.2 29 +19 +19 1013.4 1008.8
11 16.08 З 3 н/о н/о +16.1 -0.6 32 +16 +16 1014.3 1009.7
12 16.08 ЮЗ 4 н/о н/о +15.6 -0.2 34 +15 +15 1014.7 1010.1
13 16.08 ЮЗ 3 н/о н/о +14.4 +0.3 38 +14 +14 1015.0 1010.4
14 16.08 З 3 н/о н/о +13.6 +0.6 41 +13 +13 1015.2 1010.6
15 16.08 З 3 н/о н/о +12.3 +0.4 44 +11 +11 1015.2 1010.6
16 16.08 З 3 н/о н/о +12.7 +1.1 45 +12 +12 1014.7 1010.1
17 16.08 З 2 н/о н/о +11.8 +0.3 45 +11 +11 1014.4 1009.8
18 16.08 штиль 0 н/о н/о +10.4 -0.4 47 +10 +10 1014.1 1009.5
19 16.08 штиль 0 н/о н/о +9.3 -0.6 50 +9 +9 1014.1 1009.5
20 16.08 С 3 н/о н/о +8.3 -1.2 51 +6 +6 1014.5 1009.9
21 16.08 С 3 н/о н/о +9.1 -0.5 51 +7 +7 1015.0 1010.4
22 16.08 С 1 н/о н/о +12.2 +0.3 44 +13 +13 1015.7 1011.1

 

Местоположение метеостанции Moomba Airport (Южная Австралия, Австралия): широта -28.10 долгота 140.20 высота над уровнем моря 38 м.

В архиве по умолчанию представлена погода в Moomba Airport за последнюю неделю. Архивные данные за месяц целиком и за предыдущие месяцы, начиная с января 2011 года, Вы можете получить, выбрав интересующий диапазон дат из раскрывающегося списка и нажав кнопку "Ввод!".

Внимание! Время в таблицах - всемирное. Для получения местного времени необходимо прибавить поправку, которая в Moomba Airport равна 9.5 ч.

Смотрите также архив погоды в соседних городах и на ближайших метеорологических станциях:

Погода в Ballera Gas Field (Квинсленд, Австралия) (176 км)
Погода в Tibooburra Airport (Новый Южный Уэльс, Австралия) (235 км)
Погода в Birdsville Airport (Квинсленд, Австралия) (259 км)
Погода в Marree Aero (Южная Австралия, Австралия) (271 км)
Погода в Leigh Creek Airport (Южная Австралия, Австралия) (327 км)
Погода в Thargomindah Airport (Квинсленд, Австралия) (355 км)
Погода в Fowlers Gap Aws (Новый Южный Уэльс, Австралия) (362 км)
Погода в White Cliffs Aws (Новый Южный Уэльс, Австралия) (413 км)
Погода в Olympic Dam Aerodrome (Южная Австралия, Австралия) (417 км)
Погода в Broken Hill Airport (Новый Южный Уэльс, Австралия) (450 км)

Пояснения к столбцам:

Ветер - указаны скорость ветра в м/с - средняя за 10 мин, порывы в срок и между сроками (в фигурных скобках) и направление, откуда дует ветер: С - северный, СВ - северо-восточный, В - восточный, ЮВ - юго-восточный, Ю - южный, ЮЗ - юго-западный, З - западный, СЗ - северо-западный.
Видимость - горизонтальная дальность видимости в метрах или километрах. При видимости от 1 до 10 км при отсутствии осадков обычно наблюдается дымка, при ухудшении видимости до 1 км и менее - туман. В сухую погоду видимость может ухудшаться дымом, пылью или мглою.
Явления - указаны атмосферные явления, наблюдавшиеся в срок или в последний час перед сроком; фигурными скобками обозначены явления, наблюдавшиеся между сроками (за 1-3 часа до срока); квадратными скобками обозначены град или гололедные отложения с указанием их диаметра в мм.
Облачность - указаны через наклонную черту общая и нижняя облачность в баллах и высота нижней границы облаков в метрах; квадратными скобками обозначены формы облаков: Ci - перистые, Cs - перисто-слоистые, Cc - перисто-кучевые, Ac - высококучевые, As - высокослоистые, Sc - слоисто-кучевые, Ns - слоисто-дождевые, Cu - кучевые, Cb - кучево-дождевые. Подробнее классификацию облаков см. в Атласе облаков (PDF).
T - Температура воздуха - температура, измеренная на высоте 2 м над землей.
Td - Температура точки росы - температура, при понижении до которой содержащийся в воздухе водяной пар достигнет насыщения.
f - Относительная влажность воздуха - влажноcть воздуха, измеренная на высоте 2 м над землей.
Te - Эффективная температура - температура, которую ощущает одетый по сезону человек в тени. Характеристика душности погоды. При расчете учитывается влияние влажности воздуха и скорости ветра на теплоощущения человека.
Tes - Эффективная температура на солнце - температура, которую ощущает человек, с поправкой на солнечный нагрев. Характеристика знойности погоды. Зависит от высоты солнца над горизонтом, облачности и скорости ветра. Ночью, в пасмурную погоду, а также при ветре 12 м/с и более поправка равна нулю.
P - Атмосферное давление - приведенное к уровню моря атмосферное давление.
Po - Атмосферное давление - измеренное на уровне метеостанции атмосферное давление.
Tmin - Минимальная температура - минимум температуры воздуха на высоте 2 м над землей.
Tmax - Максимальная температура - максимум температуры воздуха на высоте 2 м над землей.
R - Количество осадков - Количество выпавших осадков за период времени, мм. При наведении курсора мыши на число - период времени, за который выпало указанное количество осадков.
R24 - Количество осадков - Количество выпавших осадков за 24 часа, мм.
S - Снежный покров - Высота снежного покрова, см. При наведении курсора мыши на число - состояние снежного покрова и степень покрытия местности в баллах.